Location: Pine Mountain Observatory
(43.7910°N, 120.9377°W)
Time: 15:41:38
(UTC-07:00)

Daily predictions for brighter satellites

Satellite Brightness Start Highest point End
(mag) Time Altitude Azimuth Time Altitude Azimuth Time Altitude Azimuth
Resurs 1-3 3.6 20:25:18 10° SSE 20:29:40 69° ENE 20:34:03 10° N
USA 267 4.2 20:23:52 10° SSE 20:30:07 46° SW 20:36:25 10° WNW
Cosmos 1441 Rocket 4.0 20:27:28 10° NNW 20:31:08 55° W 20:34:47 10° S
Cosmos 2263 Rocket 3.1 20:26:50 10° N 20:32:01 34° NE 20:37:08 10° ESE
Cosmos 2322 Rocket 2.8 20:29:04 10° S 20:34:12 36° ESE 20:39:22 10° NE
Cosmos 44 Rocket 3.4 20:30:07 10° NW 20:34:52 76° WSW 20:39:40 10° SSE
Okean 1 3.4 20:32:27 10° N 20:36:28 84° W 20:40:26 10° S
Cosmos 1939 Rocket 3.5 20:33:27 10° SE 20:37:09 38° ENE 20:40:49 10° N
Cosmos 1633 2.6 20:37:24 10° S 20:41:00 84° W 20:44:40 10° N
MINOTAUR R/B 4.2 20:39:41 10° NNW 20:42:27 90° ENE 20:45:13 10° SSE
Cosmos 1536 3.9 20:39:23 10° SSE 20:42:50 27° E 20:46:16 10° NNE
Lacrosse 5 rocket 1.7 20:39:26 10° NW 20:43:01 54° SW 20:46:45 10° SSE
SL-16 R/B 2.5 20:39:35 10° S 20:44:55 44° ESE 20:50:16 10° NE
YAOGAN 6 3.4 20:43:25 10° SE 20:46:36 31° ENE 20:49:45 10° N
Meteor 1-19 Rocket 4.3 20:41:27 10° N 20:47:20 67° ENE 20:53:06 10° SSE
Cosmos 1452 Rocket 3.5 20:44:27 10° SSW 20:49:44 87° ESE 20:55:04 10° NNE
Cosmos 1850 Rocket 4.3 20:45:40 10° NNW 20:50:54 53° ENE 20:56:04 10° SE
Cosmos 1420 Rocket 3.9 20:47:47 10° S 20:52:54 65° ESE 20:58:03 10° NNE
Cosmos 921 Rocket 4.1 20:50:23 10° SW 20:54:25 47° WNW 20:58:29 10° N
ATLAS 2AS CENTAUR R/B 3.5 20:47:33 10° S 20:54:25 38° ESE 21:01:40 10° NE
Tiangong 1 0.8 20:52:38 10° W 20:55:24 66° S 20:57:21 17° ESE
Helios 1B rocket 3.3 20:51:56 10° NE 20:55:29 28° E 20:59:02 10° SSE
Okean 1 Rocket 4.0 20:53:07 10° SSE 20:56:49 28° E 21:00:33 10° NNE
Resurs 01 Rocket 2.5 20:56:41 10° S 21:01:00 50° W 21:05:22 10° NNW
NOSS 3-1 (A) 4.3 20:55:37 10° SW 21:01:20 55° NW 21:07:51 10° NNE
Cosmos 1300 Rocket 3.8 20:57:19 10° SSE 21:01:25 46° E 21:05:33 10° NNE
S3M 4.0 20:57:15 10° N 21:03:33 88° E 21:09:54 10° S
NOSS 2-3 (E) 4.1 21:00:31 10° SSW 21:04:59 48° ESE 21:10:09 10° NE
CZ-4B DEB 4.4 21:01:38 10° SSE 21:05:08 79° ENE 21:08:41 10° N
BREEZE-M DEB (TANK) 2.8 21:02:34 10° SW 21:05:29 61° SE 21:13:43 10° ENE
Cosmos 1607 4.3 20:59:17 10° NNW 21:05:39 57° NE 21:10:47 16° SE
Cosmos 1553 Rocket 4.1 20:59:45 10° N 21:05:57 83° W 21:12:02 10° S
Cosmos 1025 Rocket 4.0 21:03:55 10° NNE 21:07:38 28° ENE 21:09:50 18° ESE
Cosmos 2360 Rocket 3.0 21:03:37 10° SSE 21:08:16 27° ESE 21:12:56 10° NE
Cosmos 1980 Rocket 3.5 21:03:56 10° SW 21:09:17 44° WNW 21:14:39 10° NNE
Cosmos 2315 Rocket 4.5 21:06:14 10° N 21:12:08 42° ENE 21:16:44 16° SE
SeaSat 1 2.4 21:08:05 10° NNE 21:13:03 89° ESE 21:17:59 10° SSW
Cosmos 2266 Rocket 4.0 21:07:19 10° S 21:13:14 59° E 21:19:08 10° NNE
Cosmos 2151 Rocket 3.8 21:09:18 10° SSW 21:13:40 72° W 21:18:05 10° N
Cosmos 839 Rocket 4.3 21:07:44 10° SW 21:13:57 74° NW 21:20:19 10° NNE
Meteor 1-5 Rocket 4.3 21:09:01 10° SSE 21:14:07 48° E 21:19:12 10° NNE
SPOT 5 4.1 21:14:37 17° ESE 21:16:54 24° ENE 21:20:40 10° NNE
Lacrosse 5 2.2 21:16:21 10° SSW 21:21:03 40° SE 21:25:46 10° ENE
CZ-4B DEB 2.8 21:20:10 31° SE 21:21:11 46° ENE 21:23:57 10° N
Meteor 2-4 Rocket 3.7 21:16:32 10° N 21:22:06 90° WNW 21:27:48 10° S
ERBS 4.3 21:22:50 10° W 21:25:59 31° NNW 21:29:09 10° NNE
NOAA 11 4.3 21:23:01 18° SSE 21:27:08 61° ENE 21:32:34 10° N
Okean 2 3.9 21:27:15 10° N 21:31:09 41° ENE 21:32:35 30° SE
Meteor 1-29 2.9 21:29:45 10° NNE 21:33:09 56° E 21:34:46 27° S
Cosmos 1536 Rocket 4.5 21:29:13 10° NNW 21:33:23 48° W 21:37:32 10° SSW
Atlas Centaur 2 3.9 21:31:15 10° WSW 21:37:37 26° SSW 21:40:38 20° SSE
SAR-Lupe-4 3.5 21:36:22 34° SE 21:37:44 65° ENE 21:41:20 10° N
Helios 1A 3.3 21:34:58 15° S 21:38:23 67° WSW 21:42:38 10° NNW
NOSS 2-3 (C) 3.8 21:33:51 10° SW 21:38:34 88° SE 21:44:08 10° NE
Cosmos 1932 4.5 21:39:07 10° NW 21:45:40 88° ENE 21:49:20 28° SE
Cosmos 1892 Rocket 4.3 21:44:37 10° N 21:48:42 35° ENE 21:49:24 33° E
ERS-1 Rocket 2.9 21:46:25 26° SSE 21:49:21 85° ENE 21:54:24 10° NNW
USA 238 DEB 4.0 21:43:07 10° NNW 21:50:08 59° NE 21:53:57 28° ESE
USA 238 4.0 21:43:13 10° NNW 21:50:14 58° NE 21:54:03 28° ESE
Abrixas rocket 3.6 21:47:48 10° WNW 21:50:52 35° N 21:52:12 24° NE
MetOp-A 4.1 21:47:51 27° SSE 21:50:53 79° ENE 21:56:16 10° NNW
H-2A R/B 2.5 21:51:08 33° ESE 21:52:47 44° ENE 21:57:30 10° N
SAR-Lupe-1 3.9 21:53:52 50° SSE 21:54:43 89° ENE 21:58:20 10° NNW
Cosmos 1975 3.6 21:59:01 34° ENE 21:59:01 34° ENE 22:02:09 10° NNE
Cosmos 405 4.1 22:03:31 32° NE 22:03:31 32° NE 22:05:53 10° NNE
SL-08 RB Rocket 3.7 22:01:44 45° SE 22:02:57 65° ENE 22:07:27 10° N
SL-8 R/B 3.9 21:58:48 10° WNW 22:03:35 66° NNE 22:05:20 38° E
Cosmos 1544 Rocket 4.2 22:05:25 38° E 22:05:25 38° E 22:09:19 10° NNE
Terra 2.9 22:07:59 28° ENE 22:08:23 28° ENE 22:12:26 10° N
ATLAS 3B R/B 2.5 22:03:06 10° NW 22:09:54 82° NE 22:12:35 39° SE
ARGOS 3.1 22:08:49 36° SSE 22:11:08 86° WSW 22:16:33 10° NNW
Meteor 1-12 Rocket 4.4 22:10:24 42° SE 22:11:37 50° E 22:17:03 10° NNE
Cosmos 2278 Rocket 3.7 22:11:04 10° N 22:15:28 22° NE 22:17:05 20° ENE
Cosmos 2263 Rocket 3.3 22:10:43 10° NW 22:15:59 39° WSW 22:19:18 20° SSW
Cosmos 1486 Rocket 4.1 22:10:51 10° NNW 22:16:03 61° ENE 22:17:08 49° ESE
Cosmos 1302 Rocket 4.1 22:15:40 50° SE 22:16:25 54° ESE 22:21:34 10° NNE
Cosmos 1515 3.9 22:13:38 10° NNW 22:17:25 65° W 22:17:55 58° SW
Cosmos 1455 Rocket 3.6 22:18:20 43° ENE 22:18:20 43° ENE 22:22:06 10° NNE
Cosmos 2322 Rocket 3.7 22:12:59 10° WSW 22:18:13 37° NW 22:23:29 10° N
Cosmos 2237 4.1 22:16:44 34° S 22:19:12 65° ESE 22:24:52 10° NNE
Cosmos 1844 Rocket 2.9 22:18:32 10° NNW 22:24:09 56° ENE 22:25:19 47° ESE
Cosmos 1110 Rocket 4.3 22:19:46 10° SSW 22:24:53 65° WNW 22:30:04 10° NNE
SL-16 R/B 4.0 22:24:10 10° WSW 22:29:09 31° NW 22:34:10 10° N
Tiangong 1 3.9 22:28:14 10° W 22:28:20 11° W 22:28:20 11° W
IGS 5A 4.4 22:31:35 37° NE 22:31:35 37° NE 22:34:52 10° N
Nadezhda 1 Rocket 4.2 22:25:22 10° N 22:31:36 57° ENE 22:32:52 49° ESE
Cosmos 1500 3.7 22:34:09 56° W 22:34:23 57° W 22:38:14 10° N
Cosmos 1238 Rocket 4.1 22:30:19 10° N 22:37:06 77° W 22:39:35 40° S
Cosmos 2219 Rocket 3.0 22:39:32 34° ENE 22:39:32 34° ENE 22:43:21 10° NE
Cosmos 2322 3.9 22:32:31 10° SSW 22:38:09 71° WNW 22:43:51 10° NNE
DMSP B5D2-2 4.0 22:33:21 10° NNE 22:38:35 64° ESE 22:38:43 64° ESE
ATLAS 2AS CENTAUR R/B 3.6 22:37:28 10° SW 22:45:10 60° NW 22:53:14 10° NNE
Cosmos 1437 Rocket 4.1 22:47:38 33° NNE 22:47:38 33° NNE 22:49:56 10° NNE
COSMOS 2428 2.6 22:46:11 65° S 22:47:00 78° ESE 22:52:45 10° NNE
CARTOSAT-1 4.0 22:50:43 57° NNE 22:50:43 57° NNE 22:54:20 10° N
Cosmos 2360 Rocket 3.1 22:46:35 10° SW 22:52:00 46° WNW 22:57:25 10° NNE
Cosmos 1354 Rocket 4.0 22:46:50 10° NNW 22:52:10 66° ENE 22:52:13 66° ENE
SPOT 1/Viking Rocket 3.9 22:53:13 50° SW 22:54:06 57° W 22:59:15 10° NNW
SPOT 5 3.8 22:53:51 37° SW 22:54:47 40° W 22:59:14 10° NNW
NOSS 3-4 (A) 4.3 22:57:24 36° ENE 22:57:24 36° ENE 23:01:35 10° NE
Cosmos 1818 3.7 22:56:32 58° ENE 22:56:32 58° ENE 23:01:01 10° NE
NOSS 3-4 (C) 4.3 22:57:33 35° ENE 22:57:33 35° ENE 23:01:41 10° NE
Cosmos 1844 3.6 22:50:47 10° NNW 22:56:30 78° ENE 22:56:50 74° ESE
Cosmos 2333 Rocket 3.0 23:02:15 38° ENE 23:02:15 38° ENE 23:06:02 10° NE
CENTAUR R/B 4.0 22:53:48 10° NNW 23:00:52 37° NE 23:04:37 26° E
Cosmos 1602 Rocket 4.3 22:56:32 10° N 22:59:43 46° NNE 22:59:43 46° NNE
H-2A R/B 3.1 23:04:19 38° NNE 23:04:19 38° NNE 23:07:24 10° N
BREEZE M DEB (TANK) 4.1 22:58:32 10° WNW 23:02:34 37° NNW 23:02:34 37° NNW
Lacrosse 5 2.9 22:59:08 10° WSW 23:03:59 44° NNW 23:08:52 10° NE
Cosmos 2333 4.2 23:08:38 67° SW 23:09:22 78° WNW 23:15:01 10° NNE
Timation 1 Rocket 4.5 23:06:13 10° NNW 23:12:09 60° ENE 23:12:19 60° ENE
Cosmos 1503 Rocket 4.1 23:09:08 10° NNW 23:14:13 77° WNW 23:14:13 77° WNW
Cosmos 2237 Rocket 3.3 23:24:05 32° NE 23:24:05 32° NE 23:27:19 10° NE
Cosmos 1745 Rocket 4.5 23:25:13 43° WSW 23:26:44 53° WNW 23:32:45 10° N
H-2A R/B 3.7 23:31:47 23° WSW 23:32:22 23° W 23:36:21 10° NW
BREEZE M DEB (TANK) 4.4 23:17:02 10° WSW 23:35:11 86° NNW 23:37:18 41° ENE
NOSS 3-2 (A) 4.0 23:32:50 10° NW 23:40:18 64° WSW 23:41:04 61° SSW
SL-19 R/B 4.5 23:35:03 10° NNE 23:41:24 80° WNW 23:41:33 79° W
Cosmos 2297 4.5 23:39:29 10° NNW 23:44:22 43° NE 23:44:22 43° NE
Terra 3.3 23:46:52 31° WNW 23:46:52 31° WNW 23:50:21 10° NNW
NOSS 0 Rocket 4.0 23:49:05 73° NNE 23:49:05 73° NNE 23:54:42 10° NNE
